Weather History for PAMR - September, 2014

Change the Weather History Date:

Friday, September 5, 2014

  Actual Average Record
Temperature  
Mean Temperature 52 °F -  
Max Temperature 55 °F 58 °F 71 °F (1996)
Min Temperature 48 °F 43 °F 37 °F (2004)
Degree Days  
Heating Degree Days 14    
Growing Degree Days 2 (Base 50)    
Moisture  
Dew Point 49 °F    
Average Humidity 89    
Maximum Humidity 93    
Minimum Humidity 83    
Precipitation  
Precipitation 0.42 in - - ()
Sea Level Pressure  
Sea Level Pressure 29.82 in    
Wind  
Wind Speed 5 mph (North)    
Max Wind Speed 7 mph    
Max Gust Speed -    
Visibility 8 miles    
Events Rain    
Averages and records for this station are not official NWS values.
T = Trace of Precipitation, MM = Missing Value Source: NWS Daily Summary

Daily Weather History Graph

Daily Weather History Graph

Search for Another Location

Airport or City:

Trip Planner

Search our weather history database for the weather conditions in past years. The results will help you decide how hot, cold, wet, or windy it might be!

Date:

Astronomy

Sep. 05, 2014 Rise Set
Actual Time 7:01 AM AKDT 8:52 PM AKDT
Civil Twilight 6:15 AM AKDT 9:38 PM AKDT
Nautical Twilight 5:16 AM AKDT 10:37 PM AKDT
Astronomical Twilight 4:00 AM AKDT 11:51 PM AKDT
Moon 7:08 PM AKDT (9/5) 2:18 AM AKDT (9/5)
Length of Visible Light 15h 22m
Length of Day
13h 51m
Waxing Gibbous, 85% of the Moon is Illuminated
Sep 5
Waxing Gibbous
Sep 8
Full
Sep 15
Last Quarter
Sep 23
New
Oct 1
First Quarter

Hourly Weather History & Observations

Time (AKDT) Temp. Dew Point Humidity Pressure Visibility Wind Dir Wind Speed Gust Speed Precip Events Conditions
1:53 AM 48.9 °F 46.0 °F 90% 29.83 in 10.0 mi North 4.6 mph - 0.01 in   Overcast
2:53 AM 48.9 °F 46.0 °F 90% 29.83 in 10.0 mi North 6.9 mph - N/A   Overcast
4:53 AM 48.9 °F 46.9 °F 93% 29.82 in 10.0 mi North 4.6 mph - 0.01 in Rain Light Rain
5:53 AM 48.9 °F 46.0 °F 90% 29.81 in 10.0 mi North 5.8 mph - 0.02 in Rain Light Rain
6:35 AM 48.9 °F 46.0 °F 90% 29.80 in 10.0 mi NNW 3.5 mph - 0.04 in Rain Light Rain
6:53 AM 48.9 °F 46.0 °F 90% 29.81 in 8.0 mi North 5.8 mph - 0.06 in Rain Rain
7:53 AM 48.9 °F 46.0 °F 90% 29.80 in 10.0 mi North 4.6 mph - 0.09 in Rain Light Rain
8:53 AM 48.9 °F 46.9 °F 93% 29.81 in 8.0 mi North 4.6 mph - 0.07 in Rain Light Rain
9:53 AM 50.0 °F 46.9 °F 89% 29.81 in 8.0 mi North 4.6 mph - 0.04 in Rain Light Rain
10:53 AM 50.0 °F 46.9 °F 89% 29.81 in 8.0 mi North 4.6 mph - 0.03 in Rain Light Rain
11:08 AM 50.0 °F 46.9 °F 89% 29.81 in 10.0 mi NNW 5.8 mph - 0.01 in Rain Light Rain
11:19 AM 50.0 °F 48.0 °F 93% 29.81 in 9.0 mi NNW 5.8 mph - 0.02 in Rain Light Rain
11:53 AM 51.1 °F 48.0 °F 89% 29.82 in 8.0 mi North 4.6 mph - 0.04 in Rain Light Rain
1:53 PM 53.1 °F 48.9 °F 86% 29.83 in 10.0 mi NNW 5.8 mph - 0.01 in Rain Light Rain
2:09 PM 53.1 °F 48.9 °F 86% 29.83 in 10.0 mi North 5.8 mph - 0.00 in Rain Light Rain
2:53 PM 54.0 °F 50.0 °F 86% 29.83 in 10.0 mi NNE 5.8 mph - 0.01 in Rain Light Rain
3:53 PM 54.0 °F 50.0 °F 86% 29.83 in 10.0 mi NNW 5.8 mph - 0.00 in   Overcast
4:53 PM 55.0 °F 50.0 °F 83% 29.83 in 10.0 mi NNW 4.6 mph - 0.00 in Rain Light Rain
5:00 PM 55.0 °F 50.0 °F 83% 29.82 in 10.0 mi North 4.6 mph - 0.00 in Rain Light Rain
5:53 PM 54.0 °F 51.1 °F 90% 29.83 in 3.0 mi North 5.8 mph - 0.01 in   Overcast
6:53 PM 53.1 °F 51.1 °F 93% 29.83 in 5.0 mi North 5.8 mph - 0.01 in Rain Light Rain
7:53 PM 53.1 °F 51.1 °F 93% 29.83 in 5.0 mi North 3.5 mph - 0.00 in Rain Light Rain
8:53 PM 53.1 °F 51.1 °F 93% 29.84 in 3.0 mi North 3.5 mph - 0.01 in   Overcast
9:01 PM 53.1 °F 51.1 °F 93% 29.83 in 5.0 mi North 3.5 mph - N/A   Overcast
9:53 PM 53.1 °F 50.0 °F 89% 29.84 in 4.0 mi NNW 4.6 mph - N/A   Overcast
10:53 PM 53.1 °F 50.0 °F 89% 29.85 in 4.0 mi North 4.6 mph - N/A   Overcast
11:53 PM 53.1 °F 50.0 °F 89% 29.86 in 7.0 mi Calm Calm - N/A   Overcast